Hourly Weather Cava de' Tirreni

Today, 30 July, Friday

Time Temperature Precipitation Wind Pressure Humidity
00:00 +26°C° 0 mm 1 mps 729 mmHg 36%
01:00 +26°C° 0 mm 1 mps 729 mmHg 37%
02:00 +25°C° 0 mm 1 mps 728 mmHg 39%
03:00 +25°C° 0 mm 1 mps 728 mmHg 41%
04:00 +25°C° 0 mm 1 mps 728 mmHg 42%
05:00 +26°C° 0 mm 1 mps 728 mmHg 40%
06:00 +28°C° 0 mm 1 mps 728 mmHg 38%
07:00 +29°C° 0 mm 1 mps 729 mmHg 35%
08:00 +31°C° 0 mm 1 mps 729 mmHg 32%
09:00 +34°C° 0 mm 2 mps 729 mmHg 28%
10:00 +36°C° 0 mm 2 mps 729 mmHg 25%
11:00 +36°C° 0 mm 2 mps 729 mmHg 25%
12:00 +36°C° 0 mm 3 mps 728 mmHg 24%
13:00 +37°C° 0 mm 3 mps 728 mmHg 24%
14:00 +36°C° 0 mm 3 mps 728 mmHg 25%
15:00 +36°C° 0 mm 3 mps 728 mmHg 26%
16:00 +35°C° 0 mm 3 mps 728 mmHg 27%
17:00 +34°C° 0 mm 2 mps 727 mmHg 31%
18:00 +31°C° 0 mm 1 mps 727 mmHg 35%
19:00 +29°C° 0 mm 1 mps 727 mmHg 39%
20:00 +28°C° 0 mm 1 mps 727 mmHg 41%
21:00 +27°C° 0 mm 1 mps 727 mmHg 43%
22:00 +26°C° 0 mm 1 mps 727 mmHg 45%
23:00 +26°C° 0 mm 1 mps 727 mmHg 46%

Tomorrow, 31 July, Saturday

Time Temperature Precipitation Wind Pressure Humidity
00:00 +25°C° 0 mm 1 mps 727 mmHg 47%
01:00 +25°C° 0 mm 1 mps 727 mmHg 48%
02:00 +25°C° 0 mm 1 mps 727 mmHg 49%
03:00 +24°C° 0 mm 1 mps 727 mmHg 50%
04:00 +24°C° 0 mm 1 mps 726 mmHg 51%
05:00 +25°C° 0 mm 1 mps 727 mmHg 48%
06:00 +27°C° 0 mm 1 mps 727 mmHg 44%
07:00 +28°C° 0 mm 1 mps 727 mmHg 41%
08:00 +30°C° 0 mm 1 mps 727 mmHg 36%
09:00 +32°C° 0 mm 2 mps 727 mmHg 32%
10:00 +35°C° 0 mm 2 mps 727 mmHg 27%
11:00 +35°C° 0 mm 2 mps 727 mmHg 27%
12:00 +36°C° 0 mm 3 mps 727 mmHg 27%
13:00 +37°C° 0 mm 3 mps 727 mmHg 27%
14:00 +36°C° 0 mm 3 mps 727 mmHg 28%
15:00 +36°C° 0 mm 3 mps 727 mmHg 28%
16:00 +36°C° 0 mm 2 mps 727 mmHg 29%
17:00 +34°C° 0 mm 2 mps 727 mmHg 35%
18:00 +31°C° 0 mm 2 mps 727 mmHg 41%
19:00 +29°C° 0 mm 1 mps 727 mmHg 46%
20:00 +28°C° 0 mm 1 mps 727 mmHg 47%
21:00 +28°C° 0 mm 1 mps 727 mmHg 48%
22:00 +27°C° 0 mm 1 mps 727 mmHg 49%
23:00 +27°C° 0 mm 1 mps 727 mmHg 47%

Day after tomorrow, 1 August, Sunday

Time Temperature Precipitation Wind Pressure Humidity
00:00 +27°C° 0 mm 2 mps 727 mmHg 44%
01:00 +27°C° 0 mm 2 mps 726 mmHg 42%
02:00 +26°C° 0 mm 2 mps 727 mmHg 46%
03:00 +25°C° 0 mm 2 mps 727 mmHg 50%
04:00 +25°C° 0 mm 2 mps 727 mmHg 55%
05:00 +26°C° 0 mm 2 mps 727 mmHg 48%
06:00 +28°C° 0 mm 2 mps 726 mmHg 42%
07:00 +30°C° 0 mm 2 mps 726 mmHg 35%
08:00 +32°C° 0 mm 2 mps 726 mmHg 32%
09:00 +34°C° 0 mm 2 mps 727 mmHg 29%
10:00 +36°C° 0 mm 2 mps 727 mmHg 26%
11:00 +37°C° 0 mm 3 mps 727 mmHg 25%
12:00 +37°C° 0 mm 3 mps 727 mmHg 25%
13:00 +38°C° 0 mm 4 mps 727 mmHg 24%
14:00 +38°C° 0 mm 3 mps 727 mmHg 25%
15:00 +37°C° 0 mm 3 mps 727 mmHg 26%
16:00 +36°C° 0 mm 2 mps 727 mmHg 27%
17:00 +35°C° 0 mm 2 mps 727 mmHg 30%
18:00 +34°C° 0 mm 2 mps 726 mmHg 32%
19:00 +31°C° 0 mm 2 mps 726 mmHg 35%
20:00 +30°C° 0 mm 2 mps 727 mmHg 38%
21:00 +29°C° 0 mm 2 mps 727 mmHg 42%
22:00 +28°C° 0 mm 2 mps 727 mmHg 45%
23:00 +27°C° 0 mm 2 mps 727 mmHg 52%

2 August, Monday

Time Temperature Precipitation Wind Pressure Humidity
00:00 +26°C° 0 mm 2 mps 727 mmHg 58%
01:00 +26°C° 0 mm 1 mps 727 mmHg 65%
02:00 +25°C° 0 mm 1 mps 727 mmHg 69%
03:00 +25°C° 0 mm 1 mps 727 mmHg 73%
04:00 +25°C° 0 mm 1 mps 727 mmHg 77%
05:00 +26°C° 0 mm 1 mps 728 mmHg 72%
06:00 +27°C° 0 mm 1 mps 728 mmHg 67%
07:00 +28°C° 0 mm 1 mps 728 mmHg 63%
08:00 +29°C° 0 mm 2 mps 729 mmHg 54%
09:00 +31°C° 0 mm 2 mps 729 mmHg 45%
10:00 +34°C° 0 mm 3 mps 729 mmHg 36%
11:00 +34°C° 0 mm 3 mps 729 mmHg 32%
12:00 +35°C° 0 mm 4 mps 729 mmHg 28%
13:00 +36°C° 0 mm 4 mps 729 mmHg 25%
14:00 +35°C° 0 mm 4 mps 729 mmHg 24%
15:00 +35°C° 0 mm 4 mps 729 mmHg 24%
16:00 +34°C° 0 mm 4 mps 729 mmHg 24%
17:00 +33°C° 0 mm 3 mps 729 mmHg 28%
18:00 +30°C° 0 mm 3 mps 729 mmHg 32%
19:00 +28°C° 0 mm 2 mps 729 mmHg 36%
20:00 +27°C° 0 mm 2 mps 729 mmHg 38%
21:00 +26°C° 0 mm 1 mps 729 mmHg 41%
22:00 +25°C° 0 mm 1 mps 729 mmHg 43%
23:00 +25°C° 0 mm 1 mps 730 mmHg 42%

3 August, Tuesday

Time Temperature Precipitation Wind Pressure Humidity
00:00 +25°C° 0 mm 1 mps 730 mmHg 42%
01:00 +24°C° 0 mm 1 mps 730 mmHg 41%
02:00 +24°C° 0 mm 1 mps 729 mmHg 41%
03:00 +24°C° 0 mm 1 mps 729 mmHg 40%
04:00 +24°C° 0 mm 1 mps 729 mmHg 39%
05:00 +26°C° 0 mm 2 mps 729 mmHg 34%
06:00 +27°C° 0 mm 2 mps 729 mmHg 30%
07:00 +29°C° 0 mm 2 mps 729 mmHg 25%
08:00 +31°C° 0 mm 2 mps 730 mmHg 21%
09:00 +35°C° 0 mm 2 mps 730 mmHg 18%
10:00 +38°C° 0 mm 2 mps 730 mmHg 14%
11:00 +38°C° 0 mm 2 mps 730 mmHg 15%
12:00 +39°C° 0 mm 2 mps 729 mmHg 15%
13:00 +39°C° 0 mm 2 mps 729 mmHg 15%
14:00 +39°C° 0 mm 2 mps 729 mmHg 16%
15:00 +39°C° 0 mm 2 mps 729 mmHg 16%
16:00 +39°C° 0 mm 2 mps 729 mmHg 17%
17:00 +37°C° 0 mm 2 mps 728 mmHg 19%
18:00 +35°C° 0 mm 2 mps 728 mmHg 21%
19:00 +32°C° 0 mm 2 mps 727 mmHg 23%
20:00 +31°C° 0 mm 2 mps 728 mmHg 24%
21:00 +30°C° 0 mm 2 mps 728 mmHg 25%
22:00 +29°C° 0 mm 2 mps 728 mmHg 27%
23:00 +28°C° 0 mm 1 mps 728 mmHg 30%

4 August, Wednesday

Time Temperature Precipitation Wind Pressure Humidity
00:00 +28°C° 0 mm 1 mps 727 mmHg 34%
01:00 +27°C° 0 mm 1 mps 727 mmHg 37%
02:00 +27°C° 0 mm 2 mps 727 mmHg 41%
03:00 +26°C° 0 mm 2 mps 727 mmHg 44%
04:00 +26°C° 0 mm 2 mps 727 mmHg 48%
05:00 +27°C° 0 mm 2 mps 727 mmHg 47%
06:00 +28°C° 0 mm 2 mps 728 mmHg 45%
07:00 +29°C° 0 mm 1 mps 728 mmHg 44%
08:00 +30°C° 0 mm 2 mps 728 mmHg 44%
09:00 +31°C° 0 mm 2 mps 729 mmHg 44%
10:00 +34°C° 0 mm 3 mps 729 mmHg 43%
11:00 +34°C° 0 mm 3 mps 729 mmHg 42%
12:00 +34°C° 0 mm 4 mps 729 mmHg 40%
13:00 +35°C° 0 mm 4 mps 729 mmHg 39%
14:00 +34°C° 0 mm 4 mps 729 mmHg 37%
15:00 +34°C° 0 mm 4 mps 729 mmHg 35%
16:00 +34°C° 0 mm 4 mps 729 mmHg 34%
17:00 +31°C° 0 mm 3 mps 729 mmHg 38%
18:00 +29°C° 0 mm 3 mps 729 mmHg 43%
19:00 +27°C° 0 mm 2 mps 729 mmHg 47%
20:00 +27°C° 0 mm 2 mps 729 mmHg 49%
21:00 +26°C° 0 mm 2 mps 729 mmHg 50%
22:00 +25°C° 0 mm 2 mps 729 mmHg 51%
23:00 +25°C° 0 mm 2 mps 729 mmHg 53%
Show more

We Need Your Consent

Meteoprog and our Service Providers may store and access personal data such as cookies, device identifiers or other similar technologies on your device and process such data to personalise content and ads, as well as provide social media features and to analyse the traffic.

  • Store and/or access information on your device

    Cookies, device identifiers or other information can be stored or accessed on your device for the purposes indicated above.

  • Personalised ads and content, ad and content measurement, audience insights, and products development

    Ads and content can be personalised based on a profile. More data can be added to better personalise ads and content. Ad and content performance can be measured. Insights about the audience who saw the ads and content can be derived. Such data can be used to develop or improve user’s experience, systems and software.

By clicking ‘I Agree’ you will allow the use of indicated cookies, device identifiers, web beacons or other similar technologies. Your settings can be changed in the browser on your device.

For certain purposes, legitimate interests may be relied on, rather than consent. You can read more about this in our Privacy and Cookie Policy.